Location: Namasale
(1.5000°N, 32.6167°E)
Time: 22:40:45
(UTC+00:00)

Vanguard 3 - Pass Details

Date: 28 April 2021
Orbit: 507 x 3262 km, 33.4° (Epoch: 16 May)

Event Time Altitude Azimuth Distance (km) Brightness Sun altitude
Rises 16:23:29 0° 234° (SW) 7,196 12.6 -8.5°
Reaches altitude 10° 16:28:19 10° 234° (SW) 6,203 12.2 -9.6°
Maximum altitude 16:48:17 89° 323° (NW) 2,750 9.7 -14.4°
Drops below altitude 10° 17:01:32 10° 53° (NE) 4,355 10.5 -17.6°
Sets 17:04:18 0° 54° (NE) 5,048 10.9 -18.3°
